Weather History for Leadville, CO

Change the Weather History Date:

Tuesday, March 19, 2013

  Actual Average Record
Temperature  
Mean Temperature 19 °F -  
Max Temperature 31 °F 38 °F 51 °F (2004)
Min Temperature 7 °F 12 °F -6 °F (1979)
Degree Days  
Heating Degree Days 46 40  
Month to date heating degree days 779 804  
Since 1 July heating degree days 8321 8514  
Cooling Degree Days 0 0  
Month to date cooling degree days 0 0  
Year to date cooling degree days 0 0  
Moisture  
Dew Point -3 °F    
Average Humidity 37    
Maximum Humidity 57    
Minimum Humidity 16    
Precipitation  
Precipitation T in 0.03 in 0.52 in (2003)
Month to date precipitation 0.81 0.55  
Year to date precipitation 2.43 1.87  
Sea Level Pressure  
Sea Level Pressure 30.04 in    
Wind  
Wind Speed 11 mph (WNW)    
Max Wind Speed 25 mph    
Max Gust Speed 33 mph    
Visibility 10 miles    
Events Snow    
T = Trace of Precipitation, MM = Missing Value Source: NWS Daily Summary

Daily Weather History Graph

Daily Weather History Graph

Search for Another Location

Airport:

Trip Planner

Search our weather history database for the weather conditions in past years. The results will help you decide how hot, cold, wet, or windy it might be!

Date:

Astronomy

Mar. 19, 2013 Rise Set
Actual Time 7:09 AM MDT 7:16 PM MDT
Civil Twilight 6:43 AM MDT 7:43 PM MDT
Nautical Twilight 6:11 AM MDT 8:14 PM MDT
Astronomical Twilight 5:40 AM MDT 8:46 PM MDT
Moon 12:04 PM MDT (3/19) 2:03 AM MDT (3/19)
Length of Visible Light 13h 00m
Length of Day
12h 06m
Waxing Crescent, 50% of the Moon is Illuminated
Mar 19
Waxing Crescent
Mar 27
Full
Apr 2
Last Quarter
Apr 10
New
Apr 18
First Quarter

Hourly Weather History & Observations

Time (MDT) Temp. Windchill Dew Point Humidity Pressure Visibility Wind Dir Wind Speed Gust Speed Precip Events Conditions
12:53 AM 21.9 °F 9.8 °F 7.0 °F 53% 29.94 in 10.0 mi WNW 12.7 mph 27.6 mph N/A   Overcast
1:53 AM 21.0 °F 10.6 °F 6.1 °F 53% 29.93 in 10.0 mi WNW 9.2 mph - N/A   Mostly Cloudy
2:53 AM 21.9 °F 8.7 °F 7.0 °F 53% 29.93 in 10.0 mi West 15.0 mph 25.3 mph N/A   Overcast
3:48 AM 19.4 °F 3.2 °F 8.6 °F 63% 30.02 in 5.0 mi WNW 20.7 mph 31.1 mph 0.00 in Snow Light Snow
3:53 AM 21.0 °F 5.4 °F 9.0 °F 60% 29.93 in 4.0 mi West 20.7 mph 31.1 mph 0.00 in Snow Light Snow
4:09 AM 21.2 °F 7.3 °F 8.6 °F 58% 30.00 in 10.0 mi WNW 16.1 mph 28.8 mph 0.00 in   Overcast
4:53 AM 19.9 °F 7.9 °F 7.0 °F 57% 29.91 in 10.0 mi WNW 11.5 mph 26.5 mph 0.00 in   Scattered Clouds
5:53 AM 19.9 °F 5.7 °F 6.1 °F 55% 29.94 in 10.0 mi NW 16.1 mph 26.5 mph N/A   Clear
6:53 AM 19.0 °F 5.0 °F 6.1 °F 57% 29.99 in 10.0 mi NNW 15.0 mph 23.0 mph N/A   Clear
7:53 AM 19.9 °F 7.9 °F 5.0 °F 52% 30.03 in 10.0 mi North 11.5 mph - N/A   Clear
8:53 AM 21.0 °F 12.4 °F 6.1 °F 53% 30.04 in 10.0 mi North 6.9 mph - N/A   Partly Cloudy
9:53 AM 24.1 °F 11.0 °F 1.0 °F 37% 30.04 in 10.0 mi NW 16.1 mph 24.2 mph N/A   Clear
10:53 AM 25.0 °F 12.6 °F -6.0 °F 26% 30.02 in 10.0 mi WNW 15.0 mph 20.7 mph N/A   Clear
11:53 AM 28.0 °F 20.8 °F -9.0 °F 20% 30.00 in 10.0 mi Variable 6.9 mph 20.7 mph N/A   Clear
12:53 PM 28.0 °F 15.3 °F -8.0 °F 21% 30.02 in 10.0 mi WNW 18.4 mph 29.9 mph N/A   Clear
1:53 PM 28.9 °F 16.9 °F -9.9 °F 18% 30.02 in 10.0 mi West 17.3 mph 26.5 mph N/A   Clear
2:53 PM 28.9 °F 16.9 °F -11.0 °F 17% 30.01 in 10.0 mi WNW 17.3 mph 24.2 mph N/A   Clear
3:53 PM 30.0 °F 20.0 °F -9.0 °F 18% 30.01 in 10.0 mi West 12.7 mph 26.5 mph N/A   Clear
4:53 PM 30.0 °F 18.7 °F -11.0 °F 17% 30.04 in 10.0 mi West 16.1 mph 24.2 mph N/A   Clear
5:53 PM 28.0 °F 15.7 °F -9.9 °F 19% 30.08 in 10.0 mi WNW 17.3 mph - N/A   Clear
6:53 PM 26.1 °F 15.6 °F -13.0 °F 18% 30.12 in 10.0 mi WNW 11.5 mph - N/A   Clear
7:53 PM 24.1 °F 14.4 °F -14.1 °F 18% 30.15 in 10.0 mi WNW 9.2 mph - N/A   Clear
8:53 PM 19.0 °F 13.9 °F -13.0 °F 24% 30.21 in 10.0 mi NE 3.5 mph - N/A   Clear
9:53 PM 12.0 °F - -11.9 °F 34% 30.25 in 10.0 mi Calm Calm - N/A   Clear
10:53 PM 10.9 °F - -11.0 °F 37% 30.26 in 10.0 mi Calm Calm - N/A   Clear
11:53 PM 10.9 °F - -11.9 °F 35% 30.24 in 10.0 mi Calm Calm - N/A   Clear